This is the latest recevied weather packets stored in our database for station/object KQ4PPF. If no packets are shown the sender has not sent any weather packets the latest 10 day(s).
| Time | Temp. | Humidity | Pressure | Rain* | Wind** | Luminosity | Snow |
|---|---|---|---|---|---|---|---|
| 1777948483 | 15° C | 75% | 1013.5 hPa | 0 mm | - | 0 W/m² | - |
| 1777948180 | 15° C | 75% | 1013.5 hPa | 0 mm | - | 0 W/m² | - |
| 1777947878 | 15.56° C | 73% | 1013.3 hPa | 0 mm | - | 0 W/m² | - |
| 1777947575 | 15.56° C | 73% | 1013.1 hPa | 0 mm | - | 0 W/m² | - |
| 1777947271 | 15.56° C | 74% | 1013.3 hPa | 0 mm | - | 0 W/m² | - |
| 1777946967 | 15.56° C | 72% | 1013.1 hPa | 0 mm | - | 0 W/m² | - |
| 1777946662 | 15.56° C | 71% | 1013.1 hPa | 0 mm | - | 0 W/m² | - |
| 1777946359 | 15.56° C | 71% | 1013 hPa | 0 mm | - | 0 W/m² | - |
| 1777946057 | 16.11° C | 71% | 1013.1 hPa | 0 mm | - | 0 W/m² | - |
| 1777945754 | 16.11° C | 70% | 1012.9 hPa | 0 mm | - | 0 W/m² | - |
| 1777945450 | 16.67° C | 69% | 1012.8 hPa | 0 mm | - | 0 W/m² | - |
| 1777945147 | 16.67° C | 68% | 1012.8 hPa | 0 mm | - | 0 W/m² | - |
| 1777944844 | 16.67° C | 67% | 1012.8 hPa | 0 mm | - | 0 W/m² | - |
| 1777944542 | 17.22° C | 66% | 1013 hPa | 0 mm | - | 0 W/m² | - |
| 1777944240 | 17.22° C | 65% | 1012.8 hPa | 0 mm | - | 0 W/m² | - |
| 1777943936 | 17.22° C | 65% | 1012.9 hPa | 0 mm | - | 0 W/m² | - |
| 1777943633 | 17.22° C | 63% | 1012.7 hPa | 0 mm | - | 0 W/m² | - |
| 1777943329 | 17.78° C | 63% | 1012.6 hPa | 0 mm | - | 0 W/m² | - |
| 1777943025 | 17.78° C | 62% | 1012.6 hPa | 0 mm | - | 0 W/m² | - |
| 1777942721 | 18.33° C | 61% | 1012.6 hPa | 0 mm | - | 0 W/m² | - |
| 1777942418 | 18.33° C | 59% | 1012.6 hPa | 0 mm | - | 0 W/m² | - |
| 1777942116 | 18.89° C | 59% | 1012.5 hPa | 0 mm | - | 0 W/m² | - |
| 1777941812 | 19.44° C | 56% | 1012.3 hPa | 0 mm | - | 0 W/m² | - |
| 1777941510 | 19.44° C | 55% | 1012.2 hPa | 0 mm | - | 0 W/m² | - |
| 1777941207 | 20° C | 53% | 1012 hPa | 0 mm | - | 0 W/m² | - |
* Rain latest hour (hover to see other rain measurements)
** Current wind speed in m/s (hover to see current wind gust speed)